Home > Weather > Macon > Past weeks

Flag for USA Weather for the Past 2 Weeks in Macon, Georgia, USA

Now
83 °F

Sunny.


Feels Like: 84 °F
Forecast: 67 / 84 °F
Wind: 12 mph from Southwest

Location: Middle Georgia Regional Airport

Current Time: May 1, 2016 at 12:34:49 PM

Latest Report: May 1, 2016 at 11:53 AM


Visibility: 10 mi

Pressure: 30.03 "Hg

Humidity: 53%

Dew Point: 64 °F

Location of MaconLocation

Historic Weather in Macon — Graph

°F

Macon Temperature Yesterday

Maximum temperature yesterday: 89 °F (at 1:53 PM)
Minimum temperature yesterday: 62 °F (at 5:53 AM)
Average temperature yesterday: 73 °F

High & Low Weather Summary for the Past Weeks

 TemperatureHumidityPressure
High90 °F (Apr 29, 3:53 PM)100% (Apr 22, 10:53 PM)30.39 "Hg (Apr 22, 10:53 PM)
Low42 °F (Apr 18, 6:53 AM)20% (Apr 19, 4:53 PM)29.82 "Hg (Apr 27, 5:53 PM)
Average68 °F71%30.04 "Hg
* Reported Apr 16 10:53 AM — May 1 10:53 AM, Macon, Weather by CustomWeather, © 2016

Note: Actual official high and low records may vary slightly from our data, if they occured in-between our weather recording intervals... More about our weather records

Advertising

Macon Weather History for the Previous 24 Hours

Scroll right to see more
 ConditionsComfort  
Time TempWeatherWind HumidityBarometerVisibility
10:53 AM
Sun, May 1
79 °FPassing clouds.7 mph65%30.03 "Hg10 mi
9:53 AM76 °FScattered clouds.7 mph74%30.03 "Hg10 mi
8:53 AM72 °FSunny.5 mph84%30.02 "Hg10 mi
7:53 AM68 °FFog.No wind93%30.01 "Hg5 mi
6:53 AM66 °FFog.3 mph93%30.00 "Hg5 mi
5:53 AM67 °FClear.3 mph93%29.99 "Hg9 mi
4:53 AM67 °FClear.5 mph93%29.97 "Hg8 mi
3:53 AM67 °FPassing clouds.6 mph93%29.96 "Hg10 mi
2:53 AM70 °FClear.No wind84%29.95 "Hg10 mi
1:53 AM70 °FClear.6 mph87%29.95 "Hg10 mi
12:53 AM71 °FClear.7 mph84%29.98 "Hg10 mi
11:53 PM
Sat, Apr 30
71 °FPassing clouds.5 mph84%29.97 "Hg10 mi
10:53 PM72 °FPassing clouds.5 mph81%29.98 "Hg10 mi
9:53 PM72 °FPassing clouds.7 mph84%29.97 "Hg10 mi
8:53 PM72 °FPartly sunny.No wind84%29.94 "Hg10 mi
7:53 PM73 °FBroken clouds.5 mph84%29.92 "Hg10 mi
6:53 PM77 °FScattered clouds.12 mph69%29.91 "Hg10 mi
5:53 PM80 °FPassing clouds.7 mph60%29.90 "Hg10 mi
4:53 PM81 °FScattered clouds.6 mph67%29.90 "Hg10 mi
3:53 PM78 °FScattered clouds.6 mph69%29.90 "Hg10 mi
2:53 PM82 °FPartly sunny.10 mph53%29.94 "Hg10 mi
1:53 PM89 °FPassing clouds.9 mph43%29.94 "Hg10 mi
12:53 PM87 °FScattered clouds.15 mph48%29.96 "Hg10 mi
Weather by CustomWeather, © 2016

See weather overviewHow to use our weather pages